Time,TemperatureF,DewpointF,PressureIn,WindDirection,WindDirectionDegrees,WindSpeedMPH,WindSpeedGustMPH,Humidity,HourlyPrecipIn,Conditions,Clouds,dailyrainin,SoftwareType,DateUTC
2013-04-26 00:01:00,48.0,48.0,30.17,West,265,1.0,3.0,100,0.00,,,0.01,,2013-04-26 03:01:00,
2013-04-26 00:11:00,48.0,48.0,30.17,West,265,1.0,3.0,100,0.00,,,0.01,,2013-04-26 03:11:00,
2013-04-26 00:22:00,48.0,48.0,30.18,West,265,0.0,3.0,100,0.00,,,0.01,,2013-04-26 03:22:00,
2013-04-26 00:33:00,48.0,48.0,30.18,West,265,1.0,2.0,100,0.00,,,0.01,,2013-04-26 03:33:00,
2013-04-26 00:43:00,48.0,48.0,30.18,West,265,1.0,2.0,100,0.00,,,0.01,,2013-04-26 03:43:00,
2013-04-26 00:53:00,48.0,48.0,30.19,West,265,0.0,3.0,100,0.00,,,0.01,,2013-04-26 03:53:00,
2013-04-26 01:02:00,48.0,48.0,30.19,NW,317,3.0,5.0,100,0.00,,,0.01,,2013-04-26 04:02:00,
2013-04-26 01:12:00,48.0,48.0,30.19,NW,317,3.0,5.0,100,0.00,,,0.01,,2013-04-26 04:12:00,
2013-04-26 01:23:00,49.0,49.0,30.21,NNW,329,3.0,8.0,100,0.00,,,0.01,,2013-04-26 04:23:00,
2013-04-26 01:32:00,48.0,48.0,30.22,NNW,340,3.0,9.0,100,0.01,,,0.02,,2013-04-26 04:32:00,
2013-04-26 01:43:00,48.0,48.0,30.22,NNW,340,3.0,9.0,100,0.01,,,0.02,,2013-04-26 04:43:00,
2013-04-26 01:53:00,47.0,47.0,30.23,NNW,347,3.0,7.0,100,0.01,,,0.02,,2013-04-26 04:53:00,
2013-04-26 02:02:00,47.0,47.0,30.22,NNW,340,2.0,5.0,100,0.01,,,0.02,,2013-04-26 05:02:00,
2013-04-26 02:12:00,47.0,47.0,30.22,NNW,340,2.0,5.0,100,0.01,,,0.02,,2013-04-26 05:12:00,
2013-04-26 02:22:00,46.0,45.0,30.23,NNW,341,3.0,7.0,97,0.01,,,0.02,,2013-04-26 05:22:00,
2013-04-26 02:32:00,45.0,41.0,30.22,NNW,342,5.0,8.0,86,0.00,,,0.02,,2013-04-26 05:32:00,
2013-04-26 02:42:00,45.0,41.0,30.22,NNW,342,5.0,8.0,86,0.00,,,0.02,,2013-04-26 05:42:00,
2013-04-26 02:52:00,45.0,40.0,30.23,NNW,348,6.0,8.0,82,0.00,,,0.02,,2013-04-26 05:52:00,
2013-04-26 03:02:00,43.0,38.0,30.23,North,349,6.0,12.0,82,0.00,,,0.02,,2013-04-26 06:02:00,
2013-04-26 03:11:00,43.0,38.0,30.23,North,349,6.0,12.0,82,0.00,,,0.02,,2013-04-26 06:11:00,
2013-04-26 03:21:00,41.0,37.0,30.23,North,355,7.0,14.0,85,0.00,,,0.02,,2013-04-26 06:21:00,
2013-04-26 03:32:00,41.0,38.0,30.24,NNE,29,10.0,17.0,90,0.00,,,0.02,,2013-04-26 06:32:00,
2013-04-26 03:42:00,41.0,38.0,30.24,NNE,29,10.0,17.0,90,0.00,,,0.02,,2013-04-26 06:42:00,
2013-04-26 03:52:00,41.0,38.0,30.24,NE,36,14.0,22.0,89,0.00,,,0.02,,2013-04-26 06:52:00,
2013-04-26 04:01:00,41.0,37.0,30.26,NNE,26,12.0,24.0,85,0.00,,,0.02,,2013-04-26 07:01:00,
2013-04-26 04:11:00,41.0,37.0,30.26,NNE,26,12.0,24.0,85,0.00,,,0.02,,2013-04-26 07:11:00,
2013-04-26 04:22:00,41.0,36.0,30.28,NNE,32,11.0,22.0,82,0.00,,,0.02,,2013-04-26 07:22:00,
2013-04-26 04:31:00,41.0,36.0,30.28,NE,35,10.0,18.0,81,0.00,,,0.02,,2013-04-26 07:31:00,
2013-04-26 04:42:00,41.0,36.0,30.28,NE,35,10.0,18.0,81,0.00,,,0.02,,2013-04-26 07:42:00,
2013-04-26 04:52:00,41.0,36.0,30.29,NE,38,9.0,20.0,81,0.00,,,0.02,,2013-04-26 07:52:00,
2013-04-26 05:02:00,41.0,35.0,30.30,NE,41,10.0,21.0,78,0.00,,,0.02,,2013-04-26 08:02:00,
2013-04-26 05:11:00,41.0,35.0,30.30,NE,41,10.0,21.0,78,0.00,,,0.02,,2013-04-26 08:11:00,
2013-04-26 05:22:00,41.0,35.0,30.31,NE,49,8.0,16.0,78,0.00,,,0.02,,2013-04-26 08:22:00,
2013-04-26 05:32:00,40.0,33.0,30.31,NE,45,9.0,20.0,77,0.00,,,0.02,,2013-04-26 08:32:00,
2013-04-26 05:42:00,40.0,33.0,30.31,NE,45,9.0,20.0,77,0.00,,,0.02,,2013-04-26 08:42:00,
2013-04-26 05:52:00,40.0,33.0,30.30,NE,40,16.0,22.0,76,0.00,,,0.02,,2013-04-26 08:52:00,
2013-04-26 06:01:00,40.0,33.0,30.31,NE,36,11.0,21.0,75,0.00,,,0.02,,2013-04-26 09:01:00,
2013-04-26 06:11:00,40.0,33.0,30.31,NE,36,11.0,21.0,75,0.00,,,0.02,,2013-04-26 09:11:00,
2013-04-26 06:21:00,40.0,33.0,30.32,NNE,33,10.0,20.0,75,0.00,,,0.02,,2013-04-26 09:21:00,
2013-04-26 06:33:00,40.0,32.0,30.33,NNE,20,12.0,20.0,74,0.00,,,0.02,,2013-04-26 09:33:00,
2013-04-26 06:43:00,40.0,32.0,30.33,NNE,20,12.0,20.0,74,0.00,,,0.02,,2013-04-26 09:43:00,
2013-04-26 06:53:00,39.0,31.0,30.33,NNE,33,12.0,20.0,74,0.00,,,0.02,,2013-04-26 09:53:00,
2013-04-26 07:03:00,39.0,32.0,30.34,NE,36,11.0,20.0,75,0.00,,,0.02,,2013-04-26 10:03:00,
2013-04-26 07:12:00,39.0,32.0,30.34,NE,36,11.0,20.0,75,0.00,,,0.02,,2013-04-26 10:12:00,
2013-04-26 07:23:00,39.0,32.0,30.35,NNE,22,8.0,20.0,76,0.00,,,0.02,,2013-04-26 10:23:00,
2013-04-26 07:33:00,39.0,32.0,30.36,NNE,17,8.0,16.0,77,0.00,,,0.02,,2013-04-26 10:33:00,
2013-04-26 07:42:00,39.0,32.0,30.36,NNE,17,8.0,16.0,77,0.00,,,0.02,,2013-04-26 10:42:00,
2013-04-26 07:52:00,39.0,33.0,30.36,NNE,15,6.0,20.0,78,0.00,,,0.02,,2013-04-26 10:52:00,
2013-04-26 08:02:00,39.0,33.0,30.36,NNE,17,8.0,17.0,78,0.00,,,0.02,,2013-04-26 11:02:00,
2013-04-26 08:11:00,39.0,33.0,30.36,NNE,17,8.0,17.0,78,0.00,,,0.02,,2013-04-26 11:11:00,
2013-04-26 08:22:00,39.0,33.0,30.35,North,6,9.0,17.0,79,0.00,,,0.02,,2013-04-26 11:22:00,
2013-04-26 08:32:00,39.0,33.0,30.36,NNE,27,9.0,20.0,78,0.00,,,0.02,,2013-04-26 11:32:00,
2013-04-26 08:42:00,39.0,33.0,30.36,NNE,27,9.0,20.0,78,0.00,,,0.02,,2013-04-26 11:42:00,
2013-04-26 08:52:00,39.0,33.0,30.35,NNE,19,7.0,17.0,80,0.00,,,0.02,,2013-04-26 11:52:00,
2013-04-26 09:01:00,39.0,33.0,30.36,NNE,17,8.0,16.0,80,0.00,,,0.02,,2013-04-26 12:01:00,
2013-04-26 09:11:00,39.0,33.0,30.36,NNE,17,8.0,16.0,80,0.00,,,0.02,,2013-04-26 12:11:00,
2013-04-26 09:21:00,39.0,34.0,30.36,NNE,22,5.0,15.0,81,0.00,,,0.02,,2013-04-26 12:21:00,
2013-04-26 09:32:00,39.0,34.0,30.37,NNE,18,9.0,15.0,81,0.00,,,0.02,,2013-04-26 12:32:00,
2013-04-26 09:42:00,39.0,34.0,30.37,NNE,18,9.0,15.0,81,0.00,,,0.02,,2013-04-26 12:42:00,
2013-04-26 09:52:00,39.0,33.0,30.37,North,5,6.0,13.0,80,0.00,,,0.02,,2013-04-26 12:52:00,
2013-04-26 10:01:00,39.0,33.0,30.36,NNE,29,7.0,15.0,80,0.00,,,0.02,,2013-04-26 13:01:00,
2013-04-26 10:11:00,39.0,33.0,30.36,NNE,29,7.0,15.0,80,0.00,,,0.02,,2013-04-26 13:11:00,
2013-04-26 10:22:00,39.0,33.0,30.36,NNE,17,6.0,13.0,80,0.00,,,0.02,,2013-04-26 13:22:00,
2013-04-26 10:32:00,40.0,34.0,30.37,NNE,22,6.0,16.0,80,0.00,,,0.02,,2013-04-26 13:32:00,
2013-04-26 10:42:00,40.0,34.0,30.37,NNE,22,6.0,16.0,80,0.00,,,0.02,,2013-04-26 13:42:00,
2013-04-26 10:52:00,40.0,34.0,30.39,NNE,22,5.0,16.0,79,0.00,,,0.02,,2013-04-26 13:52:00,
2013-04-26 11:01:00,40.0,34.0,30.37,North,3,6.0,14.0,79,0.00,,,0.02,,2013-04-26 14:01:00,
2013-04-26 11:11:00,40.0,34.0,30.37,North,3,6.0,14.0,79,0.00,,,0.02,,2013-04-26 14:11:00,
2013-04-26 11:21:00,40.0,34.0,30.39,NNE,27,9.0,15.0,78,0.00,,,0.02,,2013-04-26 14:21:00,
2013-04-26 11:32:00,41.0,35.0,30.40,North,10,6.0,16.0,79,0.00,,,0.02,,2013-04-26 14:32:00,
2013-04-26 11:42:00,41.0,35.0,30.40,North,10,6.0,16.0,79,0.00,,,0.02,,2013-04-26 14:42:00,
2013-04-26 11:52:00,41.0,34.0,30.40,NNW,346,5.0,14.0,77,0.00,,,0.02,,2013-04-26 14:52:00,
2013-04-26 12:01:00,42.0,35.0,30.40,NNE,17,6.0,14.0,77,0.00,,,0.02,,2013-04-26 15:01:00,
2013-04-26 12:12:00,42.0,35.0,30.40,NNE,17,6.0,14.0,77,0.00,,,0.02,,2013-04-26 15:12:00,
2013-04-26 12:21:00,42.0,35.0,30.40,North,10,5.0,14.0,77,0.00,,,0.02,,2013-04-26 15:21:00,
2013-04-26 12:33:00,42.0,35.0,30.41,North,2,5.0,12.0,77,0.00,,,0.02,,2013-04-26 15:33:00,
2013-04-26 12:43:00,42.0,35.0,30.41,North,2,5.0,12.0,77,0.00,,,0.02,,2013-04-26 15:43:00,
2013-04-26 12:53:00,42.0,35.0,30.41,NNE,17,7.0,12.0,77,0.00,,,0.02,,2013-04-26 15:53:00,
2013-04-26 13:03:00,42.0,36.0,30.40,NNW,346,5.0,12.0,78,0.00,,,0.02,,2013-04-26 16:03:00,
2013-04-26 13:12:00,42.0,36.0,30.40,NNW,346,5.0,12.0,78,0.00,,,0.02,,2013-04-26 16:12:00,
2013-04-26 13:23:00,42.0,35.0,30.40,North,350,6.0,12.0,77,0.00,,,0.02,,2013-04-26 16:23:00,
2013-04-26 13:33:00,42.0,35.0,30.40,North,355,6.0,14.0,76,0.00,,,0.02,,2013-04-26 16:33:00,
2013-04-26 13:42:00,42.0,35.0,30.40,North,355,6.0,14.0,76,0.00,,,0.02,,2013-04-26 16:42:00,
2013-04-26 13:53:00,42.0,35.0,30.40,North,355,7.0,18.0,76,0.00,,,0.02,,2013-04-26 16:53:00,
2013-04-26 14:02:00,42.0,35.0,30.40,NNE,16,7.0,18.0,76,0.00,,,0.02,,2013-04-26 17:02:00,
2013-04-26 14:12:00,42.0,35.0,30.40,NNE,16,7.0,18.0,76,0.00,,,0.02,,2013-04-26 17:12:00,
2013-04-26 14:22:00,42.0,35.0,30.40,NNE,22,10.0,14.0,75,0.00,,,0.02,,2013-04-26 17:22:00,
2013-04-26 14:32:00,42.0,35.0,30.39,NNE,14,9.0,15.0,75,0.00,,,0.02,,2013-04-26 17:32:00,
2013-04-26 14:42:00,42.0,35.0,30.39,NNE,14,9.0,15.0,75,0.00,,,0.02,,2013-04-26 17:42:00,
2013-04-26 14:52:00,42.0,34.0,30.40,North,351,6.0,17.0,74,0.00,,,0.02,,2013-04-26 17:52:00,
2013-04-26 15:02:00,42.0,34.0,30.39,North,358,9.0,20.0,73,0.00,,,0.02,,2013-04-26 18:02:00,
2013-04-26 15:12:00,42.0,34.0,30.40,North,1,6.0,14.0,74,0.00,,,0.02,,2013-04-26 18:12:00,
2013-04-26 15:22:00,42.0,34.0,30.40,North,1,6.0,14.0,74,0.00,,,0.02,,2013-04-26 18:22:00,
2013-04-26 15:33:00,41.0,34.0,30.40,North,7,4.0,13.0,76,0.00,,,0.02,,2013-04-26 18:33:00,
2013-04-26 15:42:00,41.0,34.0,30.40,North,7,4.0,13.0,76,0.00,,,0.02,,2013-04-26 18:42:00,
2013-04-26 15:52:00,41.0,34.0,30.40,North,11,7.0,15.0,76,0.00,,,0.02,,2013-04-26 18:52:00,
2013-04-26 16:01:00,41.0,35.0,30.40,NNW,347,5.0,12.0,78,0.00,,,0.02,,2013-04-26 19:01:00,
2013-04-26 16:12:00,41.0,35.0,30.40,NNW,347,5.0,12.0,78,0.00,,,0.02,,2013-04-26 19:12:00,
2013-04-26 16:22:00,40.0,34.0,30.39,NNE,17,7.0,12.0,80,0.00,,,0.02,,2013-04-26 19:22:00,
2013-04-26 16:32:00,39.0,33.0,30.39,North,354,6.0,13.0,80,0.00,,,0.02,,2013-04-26 19:32:00,
2013-04-26 16:42:00,39.0,33.0,30.39,North,354,6.0,13.0,80,0.00,,,0.02,,2013-04-26 19:42:00,
2013-04-26 16:52:00,38.0,33.0,30.38,North,358,5.0,14.0,82,0.00,,,0.02,,2013-04-26 19:52:00,
2013-04-26 17:02:00,38.0,33.0,30.38,North,7,7.0,14.0,83,0.00,,,0.02,,2013-04-26 20:02:00,
2013-04-26 17:11:00,39.0,34.0,30.37,North,9,8.0,18.0,83,0.00,,,0.02,,2013-04-26 20:11:00,
2013-04-26 17:21:00,39.0,34.0,30.37,North,9,8.0,18.0,83,0.00,,,0.02,,2013-04-26 20:21:00,
2013-04-26 17:32:00,39.0,34.0,30.38,NNE,16,5.0,14.0,83,0.00,,,0.02,,2013-04-26 20:32:00,
2013-04-26 17:42:00,39.0,34.0,30.38,NNE,16,5.0,14.0,83,0.00,,,0.02,,2013-04-26 20:42:00,
2013-04-26 17:52:00,38.0,33.0,30.38,North,0,6.0,16.0,83,0.00,,,0.02,,2013-04-26 20:52:00,
2013-04-26 18:02:00,37.0,33.0,30.38,North,356,6.0,9.0,84,0.00,,,0.02,,2013-04-26 21:02:00,
2013-04-26 18:11:00,37.0,33.0,30.38,North,356,6.0,9.0,84,0.00,,,0.02,,2013-04-26 21:11:00,
2013-04-26 18:22:00,37.0,33.0,30.37,North,6,6.0,16.0,85,0.00,,,0.02,,2013-04-26 21:22:00,
2013-04-26 18:33:00,36.0,33.0,30.37,North,3,6.0,14.0,88,0.00,,,0.02,,2013-04-26 21:33:00,
2013-04-26 18:42:00,36.0,33.0,30.37,North,3,6.0,14.0,88,0.00,,,0.02,,2013-04-26 21:42:00,
2013-04-26 18:53:00,36.0,33.0,30.37,NNW,342,5.0,10.0,88,0.00,,,0.02,,2013-04-26 21:53:00,
2013-04-26 19:02:00,36.0,33.0,30.37,North,0,6.0,12.0,89,0.00,,,0.02,,2013-04-26 22:02:00,
2013-04-26 19:12:00,36.0,33.0,30.37,North,0,6.0,12.0,89,0.00,,,0.02,,2013-04-26 22:12:00,
2013-04-26 19:23:00,36.0,33.0,30.37,North,351,5.0,10.0,90,0.00,,,0.02,,2013-04-26 22:23:00,
2013-04-26 19:33:00,35.0,32.0,30.37,NNW,348,5.0,12.0,90,0.00,,,0.02,,2013-04-26 22:33:00,
2013-04-26 19:42:00,35.0,32.0,30.37,NNW,348,5.0,12.0,90,0.00,,,0.02,,2013-04-26 22:42:00,
2013-04-26 19:52:00,35.0,32.0,30.37,NNW,348,7.0,12.0,90,0.00,,,0.02,,2013-04-26 22:52:00,
2013-04-26 20:02:00,35.0,32.0,30.38,North,350,6.0,12.0,90,0.00,,,0.02,,2013-04-26 23:02:00,
2013-04-26 20:12:00,35.0,32.0,30.38,North,350,6.0,12.0,90,0.00,,,0.02,,2013-04-26 23:12:00,
2013-04-26 20:21:00,35.0,32.0,30.38,North,351,6.0,12.0,90,0.00,,,0.01,,2013-04-26 23:21:00,
2013-04-26 20:32:00,35.0,32.0,30.38,North,358,7.0,12.0,90,0.00,,,0.01,,2013-04-26 23:32:00,
2013-04-26 20:42:00,35.0,32.0,30.38,North,358,7.0,12.0,90,0.00,,,0.01,,2013-04-26 23:42:00,
2013-04-26 20:52:00,34.0,31.0,30.37,North,358,6.0,15.0,90,0.00,,,0.01,,2013-04-26 23:52:00,
2013-04-26 21:01:00,34.0,32.0,30.38,North,356,6.0,12.0,91,0.00,,,0.01,,2013-04-27 00:01:00,
2013-04-26 21:11:00,34.0,32.0,30.38,North,356,6.0,12.0,91,0.00,,,0.01,,2013-04-27 00:11:00,
2013-04-26 21:21:00,34.0,32.0,30.38,North,354,5.0,12.0,91,0.00,,,0.01,,2013-04-27 00:21:00,
2013-04-26 21:32:00,34.0,32.0,30.38,NNW,348,6.0,12.0,91,0.00,,,0.01,,2013-04-27 00:32:00,
2013-04-26 21:42:00,34.0,32.0,30.38,NNW,348,6.0,12.0,91,0.00,,,0.01,,2013-04-27 00:42:00,
2013-04-26 21:52:00,34.0,32.0,30.38,North,3,6.0,12.0,92,0.00,,,0.01,,2013-04-27 00:52:00,
2013-04-26 22:01:00,34.0,32.0,30.37,North,1,4.0,8.0,92,0.00,,,0.01,,2013-04-27 01:01:00,
2013-04-26 22:12:00,34.0,32.0,30.37,North,1,4.0,8.0,92,0.00,,,0.01,,2013-04-27 01:12:00,
2013-04-26 22:21:00,34.0,32.0,30.37,NNW,348,5.0,13.0,93,0.00,,,0.01,,2013-04-27 01:21:00,
2013-04-26 22:32:00,34.0,32.0,30.36,NNW,345,5.0,9.0,94,0.00,,,0.01,,2013-04-27 01:32:00,
2013-04-26 22:42:00,34.0,32.0,30.36,NNW,345,5.0,9.0,94,0.00,,,0.01,,2013-04-27 01:42:00,
2013-04-26 22:52:00,34.0,32.0,30.36,North,349,5.0,7.0,94,0.00,,,0.01,,2013-04-27 01:52:00,
2013-04-26 23:02:00,34.0,33.0,30.35,NNW,344,6.0,9.0,95,0.00,,,0.01,,2013-04-27 02:02:00,
2013-04-26 23:11:00,34.0,33.0,30.35,NNW,344,6.0,9.0,95,0.00,,,0.01,,2013-04-27 02:11:00,
2013-04-26 23:22:00,34.0,33.0,30.36,NNW,348,5.0,8.0,95,0.00,,,0.01,,2013-04-27 02:22:00,
2013-04-26 23:32:00,34.0,33.0,30.36,NNW,348,6.0,9.0,95,0.00,,,0.01,,2013-04-27 02:32:00,
2013-04-26 23:42:00,34.0,33.0,30.36,NNW,348,6.0,9.0,95,0.00,,,0.01,,2013-04-27 02:42:00,
2013-04-26 23:52:00,34.0,33.0,30.35,NNW,340,6.0,10.0,97,0.00,,,0.01,,2013-04-27 02:52:00,